Agen Poker Online | Situs Poker | Poker Uang Asli | Poker Indonesia

Jackpot

Texas Poker Multi Jackpot System

Kini Telah hadir Jackpot SUPER ROYAL FLUSH

Kini Telah hadir Jackpot 2000 (khusus table VIP keatas).

Ikutilah global jackpot yang tersedia di system kami, dengan system jackpot terbaru dan pertama di indonesia, anda dapat membeli jackpot dengan harga 100 rupiah saja dan menangkan hadiahnya hingga puluhan juta rupiah.

Jackpot bukanlah suatu keharusan untuk dibeli, namun kami memberikan suatu fitur tambahan untuk member tercinta dari www.jokipoker.com.

Terdapat tiga pilihan harga jackpot yang bisa anda beli yaitu :100,500,1000 dan 2000(khusus table VIP Keatas) rupiah.

Hadiah dari Multi jackpot system www.jokipoker.com

  1. full house x 10 harga jackpot yang anda beli.
      (contoh:anda membeli 1000 maka:1000 X10 = 10.000)
  2. four of kind x 250 harga jackpot yang anda beli
      (contoh:anda membeli 1000 maka:1000 X250 = 250.000)
  3. Straight flush x 1200
      (contoh:anda membeli 1000 maka:1000 X1200 = 1.200.000)
  4. Royal flush x 10000 harga jackpot yang anda beli
      (contoh:anda membeli 1000 maka:1000 X10000 = 10.000.000)
  5. SUPER ROYAL FLUSH x 30000 harga jackpot yang anda beli
      (contoh:anda membeli 1000 maka:1000 X30000 = 30.000.000)

Kondisi kartu

  1. full house adalah kondisi kartu dimana kartu anda dan kartu tengah dengan total 7 kartu bisa mendapatkan nilai 5 kartu dengan kombinasi 1 tris(three of kind) dan 1 pair, contoh 3 kartu 10 dan 2 kartu 5
  2. Four of kind adalah kondisi kartu dimana kartu anda dan kartu tengah dengan total 7 kartu bisa mendapatkan nilai 5 kartu dengan kombinasi 4 kartu yang sama jumlah dan 1 kartu apapun juga contoh anda mendapatkan 4 buah kartu angka 3 dan 1 kartu apapun.
  3. Staright flush adalah kondisi kartu dimana kartu anda dan kartu tengah dengan total 7 kartu bisa mendapatkan nilai 5 kartu dengan kombinasi seri / staright dengan kembang yang sama contoh : urutan kartu dari angka 5, 6, 7, 8 , 9 10 dengan kembang yg sama misalnya as hati
  4. Royal flush adalah kondisi kartu dimana kartu anda dan kartu tengah dengan total 7 kartu bisa mendapatkan nilai 5 kartu dengan kombinasi seri / staright dengan kembang yang sama tetapi kartu tersebut haruslah dimulai dari 10. contoh 10, Queen, Jack, King dan aces dengan kembang yang sama
  5. Super Royal flush adalah kondisi kartu dimana Kedua kartu anda digabung dengan 3 kartu pertama meja haruslah royal flush. contoh kartu anda 10,Queen kembang sama dan 3 kartu pertama meja adalah Jack, King dan aces dengan kembang yang sama

Demikian adalah penjelasan dari Multi Jackpot www.jokipoker.com terima kasih dan selamat bermain salam hoki dari kami

Texas Poker Jackpot Winner

TOP SUPER ROYAL FLUSH
No.TanggalNamaPriceWin
121/09 07:46AKABAD1Super Royal flush15,000,000
221/09 04:40DRAKULA999Super Royal flush6,000,000
320/09 23:08CIPAPOH98Super Royal flush15,000,000
420/09 21:04DKGAM05Super Royal flush30,000,000
520/09 19:13OGENK1Super Royal flush6,000,000
TOP ROYAL FLUSH
No.TanggalNamaPriceWin
121/09 08:17AMALIATULRoyal flush2,000,000
221/09 05:49MONCROT168Royal flush500,000
321/09 04:11MANTAP707Royal flush2,000,000
421/09 03:01SAKTILORoyal flush20,000,000
521/09 02:56TOEKYOGIERoyal flush1,000,000
TOP STRAIGHT FLUSH
No.TanggalNamaPriceWin
121/09 08:28GBER4CA8WJStraight Flush1,200,000
221/09 08:11EE77164AStraight Flush600,000
321/09 08:10BAFOYA99Straight Flush120,000
421/09 08:06SD2L9Q5T8CStraight Flush600,000
521/09 08:01WARGAJPStraight Flush240,000
LATEST JACKPOT
No.TanggalNamaPriceWin
121/09 08:29ANDYLAUU88Full House2,000
221/09 08:29NAWAWEIFull House5,000
321/09 08:28DRAGON_NSTFull House5,000
421/09 08:28BHORES10Full House5,000
521/09 08:28KANG86Full House10,000
621/09 08:28SANEL77Full House2,000
721/09 08:28GBER4CA8WJStraight Flush1,200,000
821/09 08:28RASUOFull House5,000
921/09 08:28HOKI123_Full House2,000
1021/09 08:28TEMP078Full House1,000
1121/09 08:28AMK17Full House2,000
1221/09 08:28ADEL419Full House1,000
1321/09 08:28A4RXDMXR2YFull House2,000
1421/09 08:28SENDI79Full House1,000
1521/09 08:27VIALOVEFour Of A Kind50,000
1621/09 08:27AAKKQQJ100Full House5,000
1721/09 08:27MONDRITA90Full House5,000
1821/09 08:27GREETZ426Full House5,000
1921/09 08:27MILKYWILKYFull House2,000
2021/09 08:27AJAN66Full House1,000
2121/09 08:27SSWORDFull House10,000
2221/09 08:27F5E99EE2Full House1,000
2321/09 08:27SONTOT008Four Of A Kind50,000
2421/09 08:27L300AFull House2,000
2521/09 08:27FOKEL86Full House1,000
2621/09 08:27METHHEADFull House1,000
2721/09 08:27T4DERIS018Full House5,000
2821/09 08:27EMBER_99Full House1,000
2921/09 08:26DRAGON_NSTFull House5,000
3021/09 08:26OJO121Full House2,000
3121/09 08:26BLANKSIDE9Full House10,000
3221/09 08:26ARIS45Full House1,000
3321/09 08:26METHHEADFull House1,000
3421/09 08:26MAMENTTFull House1,000
3521/09 08:26DICKI1Full House2,000
3621/09 08:26I1SFLVMO3QFull House2,000
3721/09 08:26R2627SGFull House2,000
3821/09 08:26JUBET666Full House2,000
3921/09 08:26A0056E90Full House1,000
4021/09 08:26A1ASUFull House1,000
4121/09 08:26ROTARY1Full House1,000
4221/09 08:26BOBOCU69Full House10,000
4321/09 08:26GERRMEXS04Full House5,000
4421/09 08:26ALLINTWOFull House1,000
4521/09 08:26RASTA_00Full House5,000
4621/09 08:26ZN4SJGTADDFour Of A Kind125,000
4721/09 08:25OCIKEZIAFull House1,000
4821/09 08:25D4NUJAFull House5,000
4921/09 08:25ANDYQLLHWXFull House2,000
5021/09 08:25KAMASE78Full House5,000

Domino Multi Jackpot System

Ikutilah global jackpot yang tersedia di system kami, dengan system jackpot terbaru dan pertama di indonesia, anda dapat membeli jackpot dengan harga 100 rupiah saja dan menangkan hadiahnya hingga puluhan juta rupiah.

Jackpot bukanlah suatu keharusan untuk dibeli, namun kami memberikan suatu fitur tambahan untuk member tercinta dari www.jokipoker.com.

Terdapat tiga pilihan harga jackpot yang bisa anda beli yaitu :100,500 dan 1000 rupiah.

Hadiah dari Multi jackpot system www.jokipoker.com

  1. Murni Kecil x 50 harga jackpot yang anda beli.
      (contoh:anda membeli 1000 maka:1000 X 50 = 50.000)
  2. Murni Besar x 50 harga jackpot yang anda beli
      (contoh:anda membeli 1000 maka:1000 X 50 = 50.000)
  3. BALAK x 100 harga jackpot yang anda beli
      (contoh:anda membeli 1000 maka:1000 X 100 = 100.000)
  4. ENAM DEWA x 6666 harga jackpot yang anda beli
      (contoh:anda membeli 1000 maka:1000 X 6666 = 6.666.000)

Demikian adalah penjelasan dari Multi Jackpot www.jokipoker.com terima kasih dan selamat bermain salam hoki dari kami

Domino Jackpot Winner

TOP ENAM DEWA
No.TanggalNamaPriceWin
121/09 08:28QETUOPMBCZmurni enam3,333,000
221/09 06:10BHUST3Rmurni enam666,600
321/09 02:26SHIOMI85murni enam3,333,000
421/09 02:01KZZZZZmurni enam3,333,000
521/09 01:02A9USS99murni enam6,666,000
TOP BALAK
No.TanggalNamaPriceWin
121/09 08:27DEVILITO10balak100,000
221/09 08:26SULLE1974balak10,000
321/09 08:26BLUEDEVIL8balak100,000
421/09 08:17NTOL030balak100,000
521/09 08:17AD4829balak100,000
LATEST JACKPOT
No.TanggalNamaPriceWin
121/09 08:29TRAVEL199murni besar25,000
221/09 08:29BEJECKmurni besar5,000
321/09 08:28COKI15murni kecil5,000
421/09 08:28KOCIKKKmurni kecil25,000
521/09 08:28QETUOPMBCZmurni enam3,333,000
621/09 08:27DEVILITO10balak100,000
721/09 08:26SULLE1974balak10,000
821/09 08:26BLUEDEVIL8balak100,000
921/09 08:25FELISHAAmurni kecil50,000
1021/09 08:24SEXJONmurni besar50,000
1121/09 08:21AR1YANSAHmurni besar25,000
1221/09 08:21VERLORENmurni besar50,000
1321/09 08:20BG63R0Tmurni kecil50,000
1421/09 08:20J4L4NG14murni besar5,000
1521/09 08:18BMY4RI5murni kecil50,000
1621/09 08:17VERLORENmurni besar50,000
1721/09 08:17NTOL030balak100,000
1821/09 08:17AD4829balak100,000
1921/09 08:15DM213499murni kecil50,000
2021/09 08:15SUN2011murni besar5,000
2121/09 08:14PANDU2016murni kecil25,000
2221/09 08:13WACIKJPmurni kecil25,000
2321/09 08:13ALDI1986balak50,000
2421/09 08:12FERDYANSmurni besar5,000
2521/09 08:11JR2310murni kecil25,000
2621/09 08:11JOE20184murni besar25,000
2721/09 08:11JORTOK1119murni kecil25,000
2821/09 08:10WAHYUMULYAmurni kecil50,000
2921/09 08:06JR233balak50,000
3021/09 08:02JONKE433murni kecil5,000
3121/09 08:0299JAGO99murni besar50,000
3221/09 08:01BRSmurni besar50,000
3321/09 08:01HPJADULmurni besar25,000
3421/09 07:59MZGUSAYmurni kecil5,000
3521/09 07:59QUATRIK84murni besar25,000
3621/09 07:58DM213499murni besar50,000
3721/09 07:57PUTRA_338murni kecil25,000
3821/09 07:57IBRO72murni besar50,000
3921/09 07:55DISEPAKmurni besar25,000
4021/09 07:54QUATRIK84balak50,000
4121/09 07:53NDXAK46murni besar5,000
4221/09 07:52DM213499murni besar50,000
4321/09 07:51DMC888murni kecil5,000
4421/09 07:51J4L4NG14murni besar5,000
4521/09 07:50CELEBES_9murni besar50,000
4621/09 07:49RULLYANDRObalak100,000
4721/09 07:49IBRO72murni besar25,000
4821/09 07:49TIGANCIBROmurni besar25,000
4921/09 07:48RAVINbalak100,000
5021/09 07:47KOBEL14murni kecil25,000

Ceme Multi Jackpot System

Jackpot dilihat dari gabungan kartu pemain dengan kartu bandar. Bandar harus membeli jackpot sebanyak jumlah player yang sedang duduk. Sebagai contoh bila terdapat 3 pemain duduk bermain, dan bandar memutuskan untuk membeli jackpot Rp 1.000, maka pada periode tersebut bandar akan membeli jackpot sebanyak 3xRp1.000 = Rp3.000.

Jackpot bukanlah suatu keharusan untuk dibeli, namun kami memberikan suatu fitur tambahan untuk member tercinta dari www.jokipoker.com.

Terdapat tiga pilihan harga jackpot yang bisa anda beli yaitu :100,500 dan 1000 rupiah.

Hadiah dari Multi jackpot system www.jokipoker.com

  1. Murni Kecil x 50 harga jackpot yang anda beli.
      (contoh:anda membeli 1000 maka:1000 X 50 = 50.000)
  2. Murni Besar x 50 harga jackpot yang anda beli
      (contoh:anda membeli 1000 maka:1000 X 50 = 50.000)
  3. BALAK x 200 harga jackpot yang anda beli
      (contoh:anda membeli 1000 maka:1000 X 200 = 200.000)
  4. ENAM DEWA x 6666 harga jackpot yang anda beli
      (contoh:anda membeli 1000 maka:1000 X 6666 = 6.666.000)

Demikian adalah penjelasan dari Multi Jackpot www.jokipoker.com terima kasih dan selamat bermain salam hoki dari kami

Ceme Jackpot Winner

TOP ENAM DEWA
No.TanggalNamaPriceWin
121/09 08:05SASTRO75murni enam6,666,000
221/09 07:40JIBRIL_04murni enam666,600
321/09 07:21BONARSIJABmurni enam666,600
421/09 04:54CH1NM1murni enam6,666,000
521/09 04:54WINDY0030murni enam3,333,000
TOP BALAK
No.TanggalNamaPriceWin
121/09 08:28ALFAT123balak200,000
221/09 08:28LURSAbalak200,000
321/09 08:25DATAWbalak200,000
421/09 08:25OHENGERVbalak100,000
521/09 08:24VERTESbalak200,000
LATEST JACKPOT
No.TanggalNamaPriceWin
121/09 08:28JECKY6666murni besar50,000
221/09 08:28STARGIRLmurni kecil50,000
321/09 08:28JATMIKO86murni kecil5,000
421/09 08:28JUSELAmurni kecil50,000
521/09 08:28ALFAT123balak200,000
621/09 08:28LURSAbalak200,000
721/09 08:27QMHT7TWWOHmurni kecil50,000
821/09 08:27SJ1506PMYQmurni kecil50,000
921/09 08:27SAIFUL16murni besar50,000
1021/09 08:27ZAHWABJM22murni besar25,000
1121/09 08:26TROSKUTRR0murni kecil50,000
1221/09 08:26LANGGENG66murni besar50,000
1321/09 08:26PLONG099murni besar50,000
1421/09 08:25KANDANG18murni kecil5,000
1521/09 08:25PACEGOBANGmurni kecil50,000
1621/09 08:25DATAWbalak200,000
1721/09 08:25SJ1506PMYQmurni kecil50,000
1821/09 08:25MLAA_Rmurni kecil50,000
1921/09 08:25OHENGERVbalak100,000
2021/09 08:24HANSWENDmurni kecil50,000
2121/09 08:24MUDINPOmurni kecil50,000
2221/09 08:24VERTESbalak200,000
2321/09 08:24LOVE3RAJAbalak100,000
2421/09 08:24VERTESmurni kecil50,000
2521/09 08:24BLOW33murni kecil50,000
2621/09 08:24CIEQmurni kecil25,000
2721/09 08:24RIANLAU87murni kecil25,000
2821/09 08:23CL_99balak200,000
2921/09 08:23LIAFIRIANAmurni besar5,000
3021/09 08:23KOMLEK88balak200,000
3121/09 08:23NAUFALDZbalak200,000
3221/09 08:22AWALNYAmurni besar50,000
3321/09 08:22TROSKUTRR0murni besar50,000
3421/09 08:21CALYA7murni besar50,000
3521/09 08:21KONANXXXbalak200,000
3621/09 08:21RAYMON05murni besar50,000
3721/09 08:21AD8080YOmurni besar50,000
3821/09 08:21DATAWmurni besar50,000
3921/09 08:20GHOFAR92murni besar25,000
4021/09 08:20ARYANTO68murni kecil50,000
4121/09 08:20KIANU74murni besar50,000
4221/09 08:20OILINmurni kecil50,000
4321/09 08:20MUSIDUAmurni besar5,000
4421/09 08:20DH0XDVGZUZbalak100,000
4521/09 08:20OHENGERVmurni besar25,000
4621/09 08:20DANANGCHAmurni besar5,000
4721/09 08:20SKYN3T83murni besar50,000
4821/09 08:20TALITA11murni besar25,000
4921/09 08:19YKB88461murni besar5,000
5021/09 08:19KARUN6murni besar50,000